Flag for Qatar Weather past 2 weeks in Al-Jamiliyah, Qatar

Now
85 °F

Clear.


Feels Like: 94 °F
Forecast: 80 / 100 °F
Wind: 6 mph from East

Location: Al Udeid

Current Time: Oct 1, 2014 at 3:23:58 AM

Latest Report: Oct 1, 2014 at 2:58 AM


Visibility: N/A

Pressure: 29.80 "Hg

Humidity: 71%

Dew point: 75 °F

Location of Al-JamiliyahLocation

Historic Weather in Al-Jamiliyah — Graph

°F

Al-Jamiliyah temperature yesterday

Maximum temperature yesterday: 98 °F (at 12:58 PM)
Minimum temperature yesterday: 81 °F (at 5:58 AM)
Average temperature yesterday: 90 °F

Past Weeks' High & Low Weather Summary

 TemperatureHumidityPressure
High108 °F (Sep 24, 11:58 AM)87% (Sep 28, 5:58 AM)29.91 "Hg (Sep 28, 5:58 AM)
Low78 °F (Sep 21, 3:58 AM)8% (Sep 21, 1:58 PM)29.59 "Hg (Sep 16, 1:58 AM)
Average91 °F53%29.73 "Hg
* Reported Sep 16 1:58 AM — Oct 1 1:58 AM, Al-Jamiliyah, Weather by CustomWeather, © 2014

Note: Actual official high and low records may vary slightly from our data, if they occured in-between our weather recording intervals... More about our weather records

Advertising

Al-Jamiliyah weather history for previous 24 hours

 ConditionsComfort  
Time TempWeatherWind HumidityBarometerVisibility
1:58 AM
Oct 1
87 °FClear.5 mph70%29.81 "HgN/A
12:58 AM86 °FClear.5 mph69%29.81 "HgN/A
11:58 PM
Sep 30
87 °FClear.No wind69%29.82 "HgN/A
10:58 PM88 °FClear.7 mph67%29.82 "HgN/A
9:58 PM88 °FClear.5 mph66%29.83 "HgN/A
8:58 PM89 °FClear.7 mph63%29.84 "HgN/A
7:58 PM90 °FClear.6 mph60%29.83 "HgN/A
6:58 PM90 °FSunny.12 mph59%29.81 "HgN/A
5:58 PM92 °FSunny.14 mph52%29.79 "HgN/A
4:58 PM95 °FPassing clouds.15 mph38%29.78 "HgN/A
3:58 PM96 °FPassing clouds.14 mph34%29.78 "HgN/A
2:58 PM98 °FPassing clouds.10 mph34%29.77 "HgN/A
1:58 PM98 °FPassing clouds.10 mph39%29.78 "HgN/A
12:58 PM98 °FPassing clouds.8 mph35%29.80 "HgN/A
11:58 AM98 °FScattered clouds.12 mph39%29.82 "HgN/A
10:58 AM97 °FScattered clouds.7 mph36%29.84 "HgN/A
9:58 AM96 °FPassing clouds.7 mph36%29.86 "HgN/A
8:58 AM92 °FHaze.5 mph58%29.87 "Hg6 mi
7:58 AM88 °FSunny.3 mph69%29.88 "Hg5 mi
6:58 AM84 °FSunny.2 mph73%29.86 "Hg5 mi
5:58 AM81 °FClear.3 mph77%29.85 "Hg5 mi
4:58 AM81 °FClear.2 mph76%29.84 "HgN/A
3:58 AM82 °FClear.3 mph77%29.82 "HgN/A
Weather by CustomWeather, © 2014

See weather overviewHow to use our weather pages